Regional Weather Roundup
Issued by NWS State College, PA

Home | Current Version | Previous Version | Text Only | Print | Product List | Glossary On
Versions: 1 2 3 4 5 6 7 8 9 10 11 12 13 14 15 16 17 18 19 20 21 22 23 24 25 26 27 28 29 30 31 32 33 34 35 36 37 38 39 40 41 42 43 44 45 46 47 48 49 50
000
ASUS41 KCTP 060010
RWRCTP

REGIONAL WEATHER ROUNDUP
NATIONAL WEATHER SERVICE STATE COLLEGE PA
700 PM EST THU MAR 05 2015

Note: "fair" indicates few or no clouds below 12,000 feet with no
significant weather and/or obstructions to visibility.

* = STATION THAT DOES NOT REPORT PRECIPITATION /E.G. RAIN...SNOW...ETC/
    THUNDER OR FOG.

PAZ002>004-007>009-013>016-020>023-029>032-060100-
WESTERN PENNSYLVANIA

CITY           SKY/WX    TMP DP  RH WIND       PRES   REMARKS
ERIE           PTCLDY    10   0  63 W8        30.45R WCI  -2
MEADVILLE      LGT SNOW   7  -2  66 NW6       30.38R WCI  -3
FRANKLIN*      CLOUDY     7  -6  56 NW6       30.37R WCI  -3
NEW CASTLE     FAIR      10  -3  55 NW7       30.43R WCI  -1
BEAVER COUNTY  PTCLDY    12   0  57 N5        30.38  WCI   4
BUTLER*        PTCLDY    10  -2  56 N6        30.39R WCI   1
PITTSBURGH INT PTCLDY    13   1  59 N5        30.38R WCI   5
PITTSBURGH     PTCLDY    13  -1  54 NW7       30.36R WCI   3
INDIANA*       MOCLDY    12   3  67 NW8       30.37R WCI   1
LATROBE        PTCLDY    14   5  67 NW5       30.38R WCI   6
WASHINGTON CO* PTCLDY    12   1  62 CALM      30.40R
$$

PAZ004>006-010>012-017>019-024>028-033>037-041-042-045-046-049>053-060100-
CENTRAL PENNSYLVANIA

CITY           SKY/WX    TMP DP  RH WIND       PRES   REMARKS
BRADFORD       CLEAR      6  -6  57 NW10      30.24R WCI  -9
DUBOIS         MOCLDY    11  -3  53 W9        30.26R WCI  -2
CLEARFIELD     MOCLDY    14  -2  49 W8        30.29R WCI   3
JOHNSTOWN      MOCLDY    10   0  63 NW18      30.22R WCI  -8
ALTOONA        CLOUDY    16  -1  47 NW13      30.28R WCI   2
STATE COLLEGE  CLOUDY    18  -4  38 NW9       30.29R WCI   6
WILLIAMSPORT   CLOUDY    20   0  41 N5        30.32R WCI  13
SELINSGROVE    CLOUDY    21   3  45 N6        30.32R WCI  13
FT INDIANTOWN  CLOUDY    21   3  45 NW6       30.30R WCI  13
CAPITAL CITY   CLOUDY    21  12  68 W3        30.31R
HARRISBURG     CLOUDY    21  13  71 NW6       30.32R WCI  13
YORK           FLURRIES  20  15  81 N5        30.31R WCI  13
$$

PAZ038>040-043-044-047-048-054-055-060>062-067>071-060100-
EASTERN PENNSYLVANIA

CITY           SKY/WX    TMP DP  RH WIND       PRES   REMARKS
SCRANTON       CLOUDY    17   2  51 N8        30.27R WCI   7
MOUNT POCONO   CLOUDY    12   1  61 NW13G22   30.14R WCI  -3
ALLENTOWN      CLOUDY    20   5  52 NW10      30.29R WCI   9
QUAKERTOWN*    CLOUDY    18  12  79 NW5       30.28R WCI  11
READING        CLOUDY    20  14  77 W7        30.29R WCI  11
LANCASTER      CLOUDY    20  11  68 NW7       30.29R WCI  11
COATESVILLE    FLURRIES  19  16  86 NW8       30.27R WCI   9
POTTSTOWN      MIX PCPN  19  14  81 NW5       30.30R WCI  12
BLUE BELL      CLOUDY    21  16  79 CALM      30.28R
DOYLESTOWN     CLOUDY    17  13  84 NW10G17   30.26R WCI   5
WILLOW GROVE   NOT AVBL
NORTH PHILA    MIX PCPN  22  15  75 NW9       30.30R WCI  12
PHILADELPHIA   CLOUDY    21  13  71 N10       30.31R WCI  10
$$



USA.gov is the U.S. government's official web portal to all federal, state and local government web resources and services.